Flag for Germany Weather past 2 weeks in Garbsen, Lower Saxony, Germany

Now
61 °F

Broken clouds.


Feels Like: 61 °F
Forecast: 61 / 70 °F
Wind: 1 mph from North

Location: Hannover

Current Time: Jul 24, 2014 at 11:12:55 PM

Latest Report: Jul 24, 2014 at 10:20 PM


Visibility: N/A

Pressure: 30.07 "Hg

Humidity: 94%

Dew point: 59 °F

Location of GarbsenLocation

Historic Weather in Garbsen — Graph

°F

Garbsen temperature yesterday

Maximum temperature yesterday: 82 °F (at 3:50 PM)
Minimum temperature yesterday: 59 °F (at 4:50 AM)
Average temperature yesterday: 72 °F

Past Weeks' High & Low Weather Summary

 TemperatureHumidityPressure
High91 °F (Jul 19, 2:50 PM)100% (Jul 9, 11:20 PM)30.18 "Hg (Jul 9, 11:20 PM)
Low50 °F (Jul 12, 4:50 AM)26% (Jul 19, 2:20 PM)29.68 "Hg (Jul 9, 9:20 PM)
Average69 °F71%29.96 "Hg
* Reported Jul 9 9:20 PM — Jul 24 9:50 PM, Garbsen, Weather by CustomWeather, © 2014

Note: Actual official high and low records may vary slightly from our data, if they occured in-between our weather recording intervals... More about our weather records

Advertising

Garbsen weather history for previous 24 hours

 ConditionsComfort  
Time TempWeatherWind HumidityBarometerVisibility
9:50 PM
Jul 24
61 °FBroken clouds.7 mph94%30.04 "HgN/A
9:20 PM61 °FLight rain. Broken clouds.5 mph94%30.04 "HgN/A
8:50 PM61 °FLight rain. Broken clouds.7 mph94%30.04 "HgN/A
8:20 PM63 °FBroken clouds.14 mph83%30.07 "HgN/A
7:50 PM61 °FPartly sunny.3 mph94%30.04 "HgN/A
7:20 PM63 °FSprinkles. Scattered clouds.2 mph77%30.04 "HgN/A
6:50 PM63 °FThunderstorms. Scattered clouds.16 mph77%30.04 "HgN/A
6:20 PM72 °FThundershowers. Broken clouds.3 mph69%30.01 "HgN/A
5:50 PM72 °FPartly sunny.1 mph73%30.01 "HgN/A
5:20 PM73 °FSprinkles. Partly sunny.5 mph57%30.01 "HgN/A
4:50 PM73 °FPartly sunny.7 mph57%30.01 "HgN/A
4:20 PM72 °FBroken clouds.7 mph57%30.04 "HgN/A
3:50 PM72 °FBroken clouds.9 mph57%30.04 "HgN/A
3:20 PM70 °FBroken clouds.12 mph60%30.04 "HgN/A
2:50 PM70 °FBroken clouds.13 mph60%30.04 "HgN/A
2:20 PM72 °FBroken clouds.20 mph61%30.04 "HgN/A
1:50 PM73 °FBroken clouds.21 mph50%30.07 "HgN/A
1:20 PM75 °FBroken clouds.18 mph54%30.04 "HgN/A
12:50 PM75 °FBroken clouds.16 mph54%30.04 "HgN/A
12:20 PM73 °FBroken clouds.15 mph53%30.04 "HgN/A
11:50 AM72 °FBroken clouds.16 mph57%30.04 "HgN/A
11:20 AM73 °FPartly sunny.12 mph61%30.04 "HgN/A
10:50 AM73 °FPartly sunny.13 mph57%30.04 "HgN/A
10:20 AM72 °FPassing clouds.9 mph61%30.04 "HgN/A
9:50 AM70 °FPassing clouds.9 mph69%30.04 "HgN/A
9:20 AM68 °FScattered clouds.10 mph73%30.04 "HgN/A
8:50 AM66 °FPassing clouds.9 mph73%30.07 "HgN/A
8:20 AM63 °FSunny.9 mph77%30.04 "Hg10 mi
7:50 AM63 °FSunny.8 mph77%30.04 "Hg10 mi
7:20 AM61 °FSunny.8 mph83%30.04 "Hg10 mi
6:50 AM59 °FSunny.6 mph82%30.04 "Hg10 mi
6:20 AM57 °FPassing clouds.6 mph88%30.04 "HgN/A
5:50 AM55 °FClear.5 mph88%30.04 "Hg10 mi
5:20 AM57 °FPassing clouds.3 mph82%30.04 "HgN/A
4:50 AM59 °FClear.3 mph82%30.04 "Hg10 mi
4:20 AM59 °FClear.6 mph77%30.04 "Hg10 mi
3:50 AM61 °FClear.8 mph77%30.04 "Hg10 mi
3:20 AM59 °FClear.6 mph77%30.04 "Hg10 mi
2:50 AM61 °FClear.6 mph72%30.04 "Hg10 mi
2:20 AM61 °FClear.7 mph77%30.07 "Hg10 mi
1:50 AM63 °FClear.8 mph73%30.07 "Hg10 mi
1:20 AM64 °FClear.8 mph68%30.07 "Hg10 mi
12:50 AM64 °FClear.6 mph68%30.07 "Hg10 mi
12:20 AM66 °FClear.8 mph64%30.07 "Hg10 mi
11:50 PM
Jul 23
66 °FClear.8 mph60%30.07 "Hg10 mi
11:20 PM68 °FClear.9 mph60%30.07 "Hg10 mi
Weather by CustomWeather, © 2014

See weather overviewHow to use our weather pages